This is the latest recevied weather packets stored in our database for station/object KC4KQE. If no packets are shown the sender has not sent any weather packets the latest 10 day(s).
| Time | Temp. | Humidity | Pressure | Rain* | Wind** | Luminosity | Snow |
|---|---|---|---|---|---|---|---|
| 1777936156 | 25° C | 32% | 1011.7 hPa | 0 mm | - | 288 W/m² | - |
| 1777935856 | 25° C | 32% | 1011.7 hPa | 0 mm | - | 288 W/m² | - |
| 1777935556 | 25° C | 32% | 1011.7 hPa | 0 mm | - | 304 W/m² | - |
| 1777935257 | 25° C | 32% | 1011.8 hPa | 0 mm | - | 315 W/m² | - |
| 1777934956 | 25° C | 32% | 1011.8 hPa | 0 mm | - | 290 W/m² | - |
| 1777934656 | 25° C | 33% | 1011.8 hPa | 0 mm | - | 276 W/m² | - |
| 1777934357 | 25° C | 33% | 1011.8 hPa | 0 mm | - | 279 W/m² | - |
| 1777934056 | 25° C | 33% | 1011.8 hPa | 0 mm | - | 287 W/m² | - |
| 1777933756 | 25° C | 34% | 1011.8 hPa | 0 mm | - | 262 W/m² | - |
| 1777933456 | 25° C | 33% | 1011.7 hPa | 0 mm | - | 216 W/m² | - |
| 1777933157 | 25° C | 34% | 1011.8 hPa | 0 mm | - | 237 W/m² | - |
| 1777932856 | 25° C | 34% | 1011.9 hPa | 0 mm | - | 241 W/m² | - |
| 1777932556 | 25° C | 34% | 1012 hPa | 0 mm | - | 255 W/m² | - |
| 1777932256 | 25° C | 34% | 1012.1 hPa | 0 mm | - | 260 W/m² | - |
| 1777931956 | 25° C | 34% | 1012.5 hPa | 0 mm | - | 258 W/m² | - |
| 1777931656 | 25° C | 34% | 1012.6 hPa | 0 mm | - | 237 W/m² | - |
| 1777931357 | 25° C | 34% | 1012.7 hPa | 0 mm | - | 239 W/m² | - |
| 1777931056 | 25° C | 34% | 1012.9 hPa | 0 mm | - | 287 W/m² | - |
| 1777930756 | 25° C | 33% | 1013 hPa | 0 mm | - | 244 W/m² | - |
| 1777930456 | 25.56° C | 33% | 1013 hPa | 0 mm | - | 230 W/m² | - |
| 1777930156 | 25.56° C | 33% | 1013 hPa | 0 mm | - | 246 W/m² | - |
| 1777929856 | 25.56° C | 33% | 1012.9 hPa | 0 mm | - | 230 W/m² | - |
| 1777929556 | 25.56° C | 33% | 1012.9 hPa | 0 mm | - | 290 W/m² | - |
| 1777929256 | 25.56° C | 33% | 1012.9 hPa | 0 mm | - | 281 W/m² | - |
| 1777928956 | 25.56° C | 33% | 1012.8 hPa | 0 mm | - | 320 W/m² | - |
* Rain latest hour (hover to see other rain measurements)
** Current wind speed in m/s (hover to see current wind gust speed)